Location: Dattensoll
(49.9928°N, 9.8954°E)
Time: 07:20:04
(UTC+00:00)

Meteor 1-10 Rocket - Pass Details

Date: 19 May 2025
Orbit: 833 x 910 km, 81.3° (Epoch: 22 June)

Event Time Altitude Azimuth Distance (km) Brightness Sun altitude
Exits shadow 21:54:27 25° 188° (S) 1,749 5.3 -17.7°
Maximum altitude 21:58:05 86° 102° (ESE) 909 4.3 -17.9°
Drops below altitude 10° 22:03:58 10° 13° (NNE) 2,565 7.6 -18.2°
Sets 22:06:24 0° 13° (NNE) 3,498 8.4 -18.3°
